map of CXO home
CXO - Airport
Location
City:  Houston, Texas, United States
Name:Conroe-North Houston Regional
ICAO:KCXO
IATA:CXO
FAA LID:CXO

Details
Type:Airport (Airfield)
Use:Public/Civil
Latitude:3021'12"N (30.353396)
Longitude:9524'54"W (-95.415081)
Datum:WGS 1984
Elevation:244 ft (74 m)
Variation:2.41E (WMM2015 magnetic declination)
-0.11 annual change
Runways:2
Longest:7501 × 150 ft (2286 × 45.5 m), paved

Time
Time Zone:UTC-6 (DST-5)
Local Time:

Weather
METAR:KCXO 191953Z 17009KT 10SM CLR 34/22 A2993 RMK AO2 SLP132 T03390217
TAF:KCXO 191729Z 1918/2018 VRB03KT P6SM FEW040
FM201000 00000KT 5SM BR FEW020
FM201400 15004KT P6SM BKN020

Related Locations
Nearby:
Farthest:CCK: 10959 mi / 17637 km
West Island (Pulau Panjang) [Cocos (Keeling) Islands], CC

Find:

   beyond  
but within

Other Information
Maps:
NOTAMs:
Links:
Sources:

  
  • flag of United States
  • flag of Texas
  • flag of Houston
  

Airport Diagram

Airport diagram for CXO

Airport diagram PDF

Sectional Chart

Flight Planning
at skyvector.com

Satellite Image

Google Maps Satellite view

 

Copyright © 2004-2018 Karl L. Swartz. All rights reserved.
The Great Circle Mapper name and logo are trademarks of the Great Circle Mapper.
All other trademarks mentioned herein belong to their respective owners.
Please see credits for attibutions and further copyright information.

  Follow gcmap on Facebook Follow gcmap on Twitter Follow gcmap on Google+ GCmap on LinkedIn

hCard Microformat

Geo Microformat